THOR ABLESTAR DEB, 323

Orbit data source: Space-Track

THOR ABLESTAR DEB, 323 is space debris in LEO originally from a launch on Thu, 29 Jun 1961 UTC launched from the Air Force Eastern Test Range (AFETR). Debris objects in space refer to the collection of defunct objects orbiting the Earth. Examples of debris include non-operational satellites, rocket bodies, and fragments generated from explosions, collisions, or faulty payload assembly.

Loading next visibility...
Identifier
323, 1961-015CZ
Orbit
LEO
Country
Flag of USUS
Related business
Manufacturer
Unknown
Mission
Spacecraft
Bus & Motor
Unknown
Mass
Unknown
Launch date (UTC)
1961-06-29 (64 years ago)
Launch vehicle
Unknown
Launch site
Air Force Eastern Test Range (AFETR)
Object type
Payload
Rocket body
Debris
Shape & HBR
Unknown shape, 0.1 m
Radar Cross Section
Small (<0.1 m²)

Expand to show TLE details & history
Last TLE update: 17 hours ago

TLE from 17 hours ago
0 THOR ABLESTAR DEB
1   323U 61015CZ  25312.32167380  .00000650  00000-0  35762-3 0  9991
2   323  66.8379 301.2536 0083573 250.8000 108.4034 14.16120656297190
Epoch: 2025-11-08T07:43Z
TLE epoch observation values (Epoch: 2025-11-08T07:43:12.616Z)
Latitude
-0.00005°
Longitude
137.69806°
Altitude
860.101 km
Speed
7.413 km/s
True Right ascension
20h 05m 00s
True Declination
0° 00' 00"
Sunlit
Object was in daylight at epoch
Visualization orbit readout
Latitude
Unknown
Longitude
Unknown
Altitude
Unknown
Speed
Unknown
Apparent Right ascension
Unknown
Apparent Declination
Unknown
Sunlit
N/A
Visualization observer readout
Local Sidereal Time
21:12:24
Azimuth
Unknown
Elevation
Unknown
Doppler factor
Unknown
Orbital elements
Apogee altitude
897.17 km
Perigee altitude
776.574 km
Semi-major axis
7,215.009 km
Eccentricity
0.00836
Inclination
66.8379°
RAAN
301.2536°
Arg. of periapsis
250.8°
True anomaly
109.30907°
Mean anomaly
108.4034°
Eccentric anomaly
108.85654°
Mean motion
3.54151 °/min
Orbital period
101.65 mins
BSTAR
0.00035762
Loading maneuver chart data...
Computing Atmospheric mass density...

Documentation

Showing up to 5 results
|